Time[GMT],dominant_wave_period[s](0m),mean_wave_direction[degrees](0m),max_wave_height[m](0m),significant_wave_height[m](0m),mean_wave_direction_spread[degrees](0m)
2018-06-28 22:00,6.1,105.40,2.03,1.24,
2018-06-28 23:00,6.5,109.40,1.91,1.30,
2018-06-29 00:00,6.3,109.40,2.01,1.32,
2018-06-29 01:00,6.1,109.40,1.82,1.20,
2018-06-29 02:00,5.7,111.40,1.89,1.36,
2018-06-29 03:00,6.5,109.40,2.17,1.25,
2018-06-29 04:00,6.1,105.40,2.84,1.24,
2018-06-29 05:00,6.3,108.40,2.04,1.30,
2018-06-29 06:00,5.7,106.40,2.04,1.42,
2018-06-29 07:00,6.7,101.40,2.63,1.39,
2018-06-29 08:00,5.7,99.40,2.31,1.37,
2018-06-29 09:00,5.9,98.40,2.78,1.40,
2018-06-29 10:00,6.1,101.40,2.32,1.41,
2018-06-29 11:00,6.5,102.40,2.21,1.40,
2018-06-29 12:00,5.6,98.40,2.45,1.28,
2018-06-29 13:00,5.7,98.40,2.05,1.29,
2018-06-29 14:00,5.7,99.40,1.96,1.27,
2018-06-29 15:00,5.6,99.40,1.84,1.21,
2018-06-29 16:00,5.7,101.40,2.17,1.37,
2018-06-29 17:00,5.7,96.40,1.96,1.23,
2018-06-29 18:00,6.1,99.40,2.05,1.24,
2018-06-29 19:00,5.7,99.40,2.01,1.32,
2018-06-29 20:00,5.9,100.40,1.88,1.23,
2018-06-29 21:00,6.3,99.40,2.20,1.33,
2018-06-30 10:00,6.5,98.40,2.11,1.46,
2018-06-30 11:00,5.9,95.40,2.78,1.52,
2018-06-30 12:00,5.7,98.40,2.49,1.44,
2018-06-30 13:00,5.9,97.40,2.45,1.55,
2018-06-30 14:00,6.3,102.40,2.54,1.61,
2018-06-30 15:00,6.5,105.40,2.35,1.50,
2018-06-30 16:00,5.9,101.40,2.62,1.49,
2018-06-30 17:00,7.1,100.40,2.07,1.37,
2018-06-30 18:00,6.3,97.40,2.70,1.36,
2018-06-30 19:00,6.5,95.40,1.96,1.34,
2018-06-30 20:00,7.4,95.40,1.83,1.24,
2018-06-30 21:00,6.3,91.40,2.19,1.30,
2018-06-30 22:00,5.9,95.40,2.19,1.12,
2018-06-30 23:00,6.5,96.40,1.67,1.11,
2018-07-01 00:00,4.9,92.40,1.75,1.10,
2018-07-01 01:00,5.9,94.40,1.69,1.07,
2018-07-01 02:00,5.4,94.40,1.77,1.09,
2018-07-01 03:00,6.3,96.40,1.88,1.13,
2018-07-01 04:00,5.9,100.40,1.79,1.09,
2018-07-01 05:00,6.3,100.40,1.58,1.02,
2018-07-01 06:00,5.7,101.40,1.49,1.07,
2018-07-01 07:00,6.9,100.40,1.68,1.04,
2018-07-01 08:00,5.9,101.40,1.87,1.08,
2018-07-01 09:00,6.5,100.40,1.81,1.19,
2018-07-01 10:00,5.7,99.40,1.77,1.12,
2018-07-01 11:00,5.9,103.40,1.77,1.20,
2018-07-01 12:00,5.9,99.40,2.39,1.29,
2018-07-01 13:00,5.7,98.40,2.30,1.14,
2018-07-01 14:00,6.7,97.40,1.71,1.12,
2018-07-01 15:00,5.4,98.40,1.73,1.10,
2018-07-01 16:00,5.7,101.40,1.78,1.04,
2018-07-01 17:00,5.9,102.40,1.77,1.06,
2018-07-01 18:00,6.1,103.40,1.83,1.12,
2018-07-01 19:00,6.1,104.40,1.93,1.07,
2018-07-01 20:00,5.9,103.40,1.58,1.06,
2018-07-01 21:00,5.7,107.40,1.78,1.08,
2018-07-01 22:00,5.4,100.40,1.50,1.00,
2018-07-01 23:00,5.6,100.40,1.75,1.07,
2018-07-02 00:00,8.7,100.40,1.75,1.00,
2018-07-02 01:00,8.3,104.40,1.35,0.95,
2018-07-02 02:00,7.4,103.40,1.39,0.92,
2018-07-02 03:00,9.1,102.40,1.45,0.98,
2018-07-02 04:00,8.7,104.40,1.63,0.94,
2018-07-02 05:00,8.3,98.40,1.51,0.94,
2018-07-02 06:00,8.3,101.40,1.57,0.98,
2018-07-02 07:00,8.0,103.40,1.61,0.89,
2018-07-02 08:00,6.7,106.40,1.62,0.94,
2018-07-02 09:00,5.6,101.40,1.56,0.99,
2018-07-02 10:00,5.3,102.40,1.64,1.01,
2018-07-02 11:00,5.7,102.40,2.22,1.02,
2018-07-02 12:00,5.7,105.40,1.75,1.08,
2018-07-02 13:00,4.7,103.40,1.98,1.05,
2018-07-02 14:00,8.7,107.40,1.93,1.02,
2018-07-02 15:00,5.7,107.40,1.87,1.06,
2018-07-02 16:00,5.9,106.40,1.80,1.10,
2018-07-02 17:00,5.9,110.40,1.40,0.94,
2018-07-02 18:00,5.1,111.40,1.71,1.01,
2018-07-02 19:00,5.4,107.40,1.46,0.94,
2018-07-02 20:00,5.4,104.40,1.47,1.00,
2018-07-02 21:00,5.1,97.40,2.36,1.01,
2018-07-02 22:00,4.7,105.40,1.50,0.99,
2018-07-02 23:00,5.6,103.40,1.60,1.00,
2018-07-03 00:00,5.7,103.40,1.67,1.01,
2018-07-03 01:00,5.7,107.40,1.73,1.03,
2018-07-03 02:00,5.6,106.40,1.72,0.97,
2018-07-03 03:00,5.0,104.40,1.75,1.03,
2018-07-03 04:00,5.6,105.40,1.71,1.07,
2018-07-03 05:00,5.4,107.40,1.94,1.13,
2018-07-03 06:00,5.4,105.40,1.80,1.27,
2018-07-03 07:00,5.9,108.40,1.96,1.16,
2018-07-03 08:00,5.3,102.40,2.09,1.15,
2018-07-03 09:00,5.7,104.40,2.28,1.42,
2018-07-03 10:00,5.7,110.40,1.97,1.25,
2018-07-03 11:00,5.6,100.40,2.21,1.37,
2018-07-03 12:00,5.9,104.40,2.83,1.38,
2018-07-03 13:00,5.7,107.40,2.35,1.37,
2018-07-03 14:00,5.9,106.40,2.25,1.32,
2018-07-03 15:00,5.7,104.40,1.96,1.33,
2018-07-03 16:00,6.1,106.40,2.08,1.45,
2018-07-03 17:00,5.9,106.40,2.25,1.41,
2018-07-03 18:00,6.1,102.40,2.27,1.37,
2018-07-03 19:00,5.7,106.40,2.18,1.35,
2018-07-03 20:00,6.3,108.40,2.55,1.31,
2018-07-03 21:00,5.6,106.40,2.12,1.21,
2018-07-03 22:00,5.9,102.40,2.13,1.15,
2018-07-03 23:00,5.7,103.40,2.24,1.20,
2018-07-04 00:00,5.9,103.40,1.89,1.26,
2018-07-04 01:00,5.9,98.40,2.16,1.32,
2018-07-04 02:00,,,,,
2018-07-04 03:00,5.3,98.40,2.59,1.38,
2018-07-04 04:00,6.1,101.40,2.77,1.51,
2018-07-04 05:00,5.7,101.40,2.16,1.42,
2018-07-04 06:00,6.3,105.40,2.21,1.56,
2018-07-04 07:00,6.5,104.40,2.78,1.63,
2018-07-04 08:00,6.5,101.40,2.46,1.55,
2018-07-04 09:00,6.7,101.40,2.30,1.46,
2018-07-04 10:00,5.9,102.40,2.84,1.58,
2018-07-04 11:00,6.5,102.40,2.50,1.46,
2018-07-04 12:00,6.3,100.40,2.18,1.48,
2018-07-04 13:00,6.9,101.40,2.31,1.49,
2018-07-04 14:00,6.5,97.40,2.47,1.47,
2018-07-04 15:00,6.5,104.40,2.43,1.50,
2018-07-04 16:00,6.1,100.40,2.26,1.42,
2018-07-04 17:00,6.5,103.40,2.18,1.39,
2018-07-04 18:00,6.5,107.40,2.27,1.38,
2018-07-04 19:00,5.7,107.40,2.22,1.34,
2018-07-04 20:00,6.3,106.40,1.81,1.31,
2018-07-04 21:00,6.9,106.40,2.35,1.35,
2018-07-04 22:00,6.3,107.40,2.03,1.31,
2018-07-04 23:00,6.5,103.40,2.14,1.29,
2018-07-05 00:00,6.9,102.40,2.49,1.49,
2018-07-05 01:00,5.6,102.40,2.05,1.39,
2018-07-05 02:00,7.1,102.40,1.92,1.28,
2018-07-05 03:00,5.7,101.40,2.07,1.30,
2018-07-05 04:00,5.6,100.40,1.97,1.28,
2018-07-05 05:00,5.0,100.40,2.66,1.39,
2018-07-05 06:00,7.1,101.40,2.43,1.39,
2018-07-05 07:00,4.9,102.40,2.30,1.38,
2018-07-05 08:00,5.9,105.40,2.22,1.39,
2018-07-05 09:00,5.9,104.40,2.41,1.30,
2018-07-05 10:00,5.9,102.40,2.54,1.32,
2018-07-05 11:00,6.1,100.40,2.05,1.37,
2018-07-05 12:00,5.4,100.40,2.42,1.43,
2018-07-05 13:00,6.3,102.40,2.00,1.28,
2018-07-05 14:00,6.5,100.40,2.50,1.30,
2018-07-05 15:00,5.7,105.40,2.20,1.32,
2018-07-05 16:00,5.9,101.40,2.27,1.28,
2018-07-05 17:00,5.4,101.40,1.84,1.20,
2018-07-05 18:00,6.3,104.40,1.58,1.11,
2018-07-05 19:00,5.7,104.40,1.68,1.11,
2018-07-05 20:00,5.9,104.40,1.70,1.07,
2018-07-05 21:00,5.6,104.40,1.80,1.09,
2018-07-05 22:00,5.4,105.40,1.52,1.00,
2018-07-05 23:00,5.9,104.40,1.47,1.01,
2018-07-06 00:00,5.6,101.40,1.76,1.06,
2018-07-06 01:00,5.6,104.40,1.88,1.06,
2018-07-06 02:00,5.4,96.40,2.03,1.04,
2018-07-06 03:00,5.9,97.40,1.91,1.22,
2018-07-06 04:00,5.4,100.40,1.67,1.18,
2018-07-06 05:00,5.9,101.40,2.07,1.34,
2018-07-06 06:00,5.6,98.40,1.95,1.26,
2018-07-06 07:00,5.4,95.40,1.93,1.24,
2018-07-06 08:00,6.3,98.40,2.17,1.42,
2018-07-06 09:00,5.7,100.40,2.01,1.34,
2018-07-06 10:00,5.1,102.40,2.30,1.39,
2018-07-06 11:00,5.7,101.40,1.83,1.36,
2018-07-06 12:00,5.7,102.40,2.35,1.35,
2018-07-06 13:00,6.7,101.40,2.02,1.30,
2018-07-06 14:00,6.1,102.40,2.00,1.34,
2018-07-06 15:00,5.9,98.40,2.20,1.45,
2018-07-06 16:00,5.9,103.40,2.03,1.34,
2018-07-06 17:00,6.1,101.40,2.48,1.43,
2018-07-06 18:00,6.5,103.40,1.96,1.39,
2018-07-06 19:00,6.3,102.40,2.27,1.29,
2018-07-06 20:00,5.9,103.40,2.43,1.38,
2018-07-06 21:00,5.9,100.40,2.25,1.26,
2018-07-06 22:00,6.7,97.40,1.96,1.28,
2018-07-06 23:00,6.9,96.40,2.13,1.26,
2018-07-07 00:00,6.3,96.40,2.12,1.28,
2018-07-07 01:00,6.7,94.40,2.31,1.46,
2018-07-07 02:00,8.0,98.40,2.19,1.53,
2018-07-07 03:00,6.5,98.40,2.69,1.52,
2018-07-07 04:00,6.3,101.40,2.52,1.60,
2018-07-07 05:00,6.5,102.40,2.62,1.54,
2018-07-07 06:00,7.4,104.40,2.48,1.67,
2018-07-07 07:00,6.5,103.40,2.89,1.69,
2018-07-07 08:00,5.9,102.40,2.89,1.81,
2018-07-07 09:00,6.1,99.40,2.84,1.72,
2018-07-07 10:00,6.3,101.40,2.64,1.72,
2018-07-07 11:00,6.1,99.40,2.65,1.69,
2018-07-07 12:00,6.9,101.40,3.32,1.81,
2018-07-07 13:00,6.1,98.40,2.80,1.75,
2018-07-07 14:00,7.4,98.40,2.48,1.82,
2018-07-07 15:00,6.5,98.40,2.73,1.77,
2018-07-07 16:00,6.3,99.40,2.76,1.73,
2018-07-07 17:00,6.1,96.40,2.67,1.59,
2018-07-07 18:00,6.9,98.40,2.12,1.51,
2018-07-07 19:00,6.5,99.40,2.42,1.59,
2018-07-07 20:00,7.1,100.40,2.48,1.59,
2018-07-07 21:00,6.7,101.40,2.42,1.48,
2018-07-07 22:00,6.9,98.40,2.89,1.46,
2018-07-07 23:00,6.5,100.40,2.41,1.50,
2018-07-08 00:00,6.5,100.40,2.25,1.57,
2018-07-08 01:00,6.3,94.40,2.83,1.46,
2018-07-08 02:00,6.1,97.40,2.26,1.52,
2018-07-08 03:00,8.3,95.40,2.85,1.64,
2018-07-08 04:00,5.9,91.40,2.96,1.58,
2018-07-08 05:00,6.1,93.40,2.28,1.52,
2018-07-08 06:00,6.1,92.40,2.44,1.51,
2018-07-08 07:00,6.7,95.40,2.40,1.50,
2018-07-08 08:00,7.1,96.40,2.29,1.52,
2018-07-08 09:00,6.5,99.40,2.49,1.54,
2018-07-08 10:00,6.7,97.40,2.52,1.52,
2018-07-08 11:00,6.5,97.40,2.44,1.59,
2018-07-08 12:00,7.7,94.40,2.65,1.59,
2018-07-08 13:00,6.9,98.40,2.71,1.59,
2018-07-08 14:00,6.5,95.40,2.76,1.59,
2018-07-08 15:00,6.9,95.40,2.85,1.67,
2018-07-08 16:00,6.5,93.40,2.47,1.51,
2018-07-08 17:00,8.3,95.40,2.26,1.50,
2018-07-08 18:00,8.0,94.40,2.18,1.50,
2018-07-08 19:00,7.1,94.40,2.50,1.44,
2018-07-08 20:00,7.1,94.40,2.31,1.33,
2018-07-08 21:00,8.7,97.40,2.47,1.50,
2018-07-08 22:00,6.3,98.40,2.46,1.33,
2018-07-08 23:00,6.9,96.40,2.14,1.32,
2018-07-09 00:00,6.9,99.40,2.25,1.37,
2018-07-09 01:00,6.9,99.40,2.17,1.45,
2018-07-09 02:00,9.1,95.40,2.52,1.54,
2018-07-09 03:00,7.1,96.40,2.58,1.58,
2018-07-09 04:00,6.1,96.40,2.65,1.48,
2018-07-09 05:00,6.7,93.40,3.07,1.64,
2018-07-09 06:00,5.7,93.40,2.51,1.68,
2018-07-09 07:00,6.3,91.40,2.99,1.60,
2018-07-09 08:00,7.1,94.40,2.55,1.55,
2018-07-09 09:00,6.5,98.40,3.01,1.66,
2018-07-09 10:00,6.5,95.40,2.56,1.64,
2018-07-09 11:00,6.9,97.40,2.70,1.94,
2018-07-09 12:00,6.5,94.40,2.95,1.95,
2018-07-09 13:00,6.9,99.40,3.96,2.14,
2018-07-09 14:00,6.1,104.40,3.45,2.18,
2018-07-09 15:00,8.0,103.40,3.36,2.19,
2018-07-09 16:00,8.3,107.40,3.57,2.33,
2018-07-09 17:00,8.7,107.40,3.41,2.16,
2018-07-09 18:00,7.7,109.40,4.87,2.36,
2018-07-09 19:00,7.4,111.40,3.88,2.20,
2018-07-09 20:00,8.0,114.40,3.43,2.01,
2018-07-09 21:00,7.7,114.40,3.17,1.82,
2018-07-09 22:00,7.1,120.40,2.65,1.60,
2018-07-09 23:00,7.1,114.40,2.68,1.64,
2018-07-10 00:00,6.7,113.40,2.25,1.55,
2018-07-10 01:00,6.7,112.40,2.28,1.50,
2018-07-10 02:00,6.5,108.40,2.43,1.40,
2018-07-10 03:00,9.5,104.40,2.26,1.58,
2018-07-10 04:00,9.5,105.40,2.59,1.57,
2018-07-10 05:00,6.9,104.40,2.45,1.58,
2018-07-10 06:00,8.7,103.40,2.38,1.42,
2018-07-10 07:00,6.5,105.40,2.33,1.56,
2018-07-10 08:00,6.5,103.40,2.58,1.52,
2018-07-10 09:00,6.5,108.40,3.02,1.46,
2018-07-10 10:00,6.1,112.40,2.61,1.36,
2018-07-10 11:00,6.7,109.40,2.07,1.41,
2018-07-10 12:00,6.7,113.40,2.60,1.44,
2018-07-10 13:00,7.1,109.40,2.30,1.48,
2018-07-10 14:00,6.1,104.40,2.76,1.46,
2018-07-10 15:00,9.1,104.40,2.30,1.49,
2018-07-10 16:00,9.1,103.40,2.57,1.58,
2018-07-10 17:00,5.7,106.40,2.26,1.51,
2018-07-10 18:00,6.7,109.40,2.25,1.52,
2018-07-10 19:00,6.3,108.40,2.55,1.41,
2018-07-10 20:00,6.3,108.40,2.48,1.44,
2018-07-10 21:00,5.7,112.40,2.01,1.27,
2018-07-10 22:00,6.7,111.40,1.85,1.19,
2018-07-10 23:00,5.9,112.40,1.86,1.27,
2018-07-11 00:00,8.7,106.40,2.05,1.37,
2018-07-11 01:00,6.3,109.40,2.29,1.32,
2018-07-11 02:00,5.7,108.40,1.96,1.31,
2018-07-11 03:00,6.1,105.40,2.06,1.28,
2018-07-11 04:00,6.3,101.40,1.97,1.31,
2018-07-11 05:00,8.3,97.40,2.43,1.38,
2018-07-11 06:00,5.9,99.40,1.88,1.29,
2018-07-11 07:00,6.3,100.40,1.94,1.19,
2018-07-11 08:00,6.3,100.40,1.74,1.17,
2018-07-11 09:00,6.1,100.40,1.70,1.20,
2018-07-11 10:00,6.3,103.40,2.64,1.19,
2018-07-11 11:00,5.7,102.40,1.78,1.12,
2018-07-11 12:00,9.1,104.40,2.20,1.15,
2018-07-11 13:00,5.9,105.40,1.63,1.09,
2018-07-11 14:00,9.1,102.40,1.94,1.18,
2018-07-11 15:00,6.1,108.40,1.84,1.16,
2018-07-11 16:00,5.9,107.40,1.62,1.10,
2018-07-11 17:00,7.1,104.40,2.32,1.18,
2018-07-11 18:00,5.6,104.40,1.99,1.15,
2018-07-11 19:00,9.1,105.40,1.58,1.09,
2018-07-11 20:00,6.1,103.40,1.54,1.04,
2018-07-11 21:00,6.3,106.40,2.21,1.04,
2018-07-11 22:00,9.1,104.40,1.50,0.98,
2018-07-11 23:00,6.3,105.40,1.58,1.02,
2018-07-12 00:00,5.4,108.40,1.98,1.10,
2018-07-12 01:00,5.9,111.40,1.73,1.10,
2018-07-12 02:00,5.9,104.40,2.02,1.30,
2018-07-12 03:00,6.5,105.40,1.73,1.26,
2018-07-12 04:00,5.4,104.40,1.84,1.20,
2018-07-12 05:00,5.6,99.40,1.82,1.22,
2018-07-12 06:00,6.3,97.40,1.74,1.11,
2018-07-12 07:00,5.7,100.40,1.85,1.21,
2018-07-12 08:00,5.4,99.40,1.83,1.19,
2018-07-12 09:00,5.4,103.40,1.77,1.15,
2018-07-12 10:00,5.9,107.40,1.68,1.08,
2018-07-12 11:00,5.9,105.40,2.16,1.07,
2018-07-12 12:00,5.4,104.40,2.05,1.09,
2018-07-12 13:00,5.9,102.40,1.74,1.07,
2018-07-12 14:00,6.1,104.40,2.07,1.10,
2018-07-12 15:00,5.9,104.40,1.82,1.10,
2018-07-12 16:00,5.7,104.40,2.08,1.09,
2018-07-12 17:00,5.9,103.40,1.49,1.02,
2018-07-12 18:00,6.1,105.40,1.58,1.02,
2018-07-12 19:00,6.7,99.40,1.67,1.06,
2018-07-12 20:00,6.3,99.40,1.80,1.00,
2018-07-12 21:00,5.9,98.40,1.76,1.11,
2018-07-12 22:00,5.7,97.40,1.55,1.02,
2018-07-12 23:00,5.9,101.40,1.66,0.96,
2018-07-13 00:00,5.1,102.40,1.40,0.95,
2018-07-13 01:00,5.6,104.40,1.56,0.98,
2018-07-13 02:00,6.5,103.40,1.70,0.99,
2018-07-13 03:00,5.3,108.40,1.57,0.99,
2018-07-13 04:00,5.6,110.40,1.48,0.91,
2018-07-13 05:00,5.3,110.40,1.47,0.97,
2018-07-13 06:00,5.7,106.40,1.65,1.02,
2018-07-13 07:00,5.1,105.40,1.63,0.98,
2018-07-13 08:00,5.4,105.40,1.42,0.92,
2018-07-13 09:00,6.5,112.40,1.57,1.01,
2018-07-13 10:00,5.9,110.40,1.66,0.99,
2018-07-13 11:00,5.9,116.40,1.64,1.06,
2018-07-13 12:00,5.7,113.40,1.80,1.09,
2018-07-13 13:00,5.9,112.40,1.82,1.11,
2018-07-13 14:00,5.4,114.40,1.77,1.10,
2018-07-13 15:00,5.7,113.40,2.32,1.29,
2018-07-13 16:00,6.1,111.40,1.71,1.19,
2018-07-13 17:00,5.6,115.40,1.96,1.24,
2018-07-13 18:00,5.7,112.40,1.76,1.11,
2018-07-13 19:00,6.1,113.40,1.95,1.14,
2018-07-13 20:00,6.3,112.40,1.77,1.09,
2018-07-13 21:00,6.3,100.40,2.19,1.20,
2018-07-13 22:00,6.1,95.40,1.80,1.15,
2018-07-13 23:00,6.1,99.40,1.78,1.18,
2018-07-14 00:00,6.7,102.40,1.97,1.17,
2018-07-14 01:00,5.9,99.40,1.81,1.16,
2018-07-14 02:00,6.5,102.40,2.07,1.21,
2018-07-14 03:00,5.9,103.40,2.17,1.19,
2018-07-14 04:00,5.9,108.40,1.91,1.23,
2018-07-14 05:00,6.3,107.40,1.92,1.32,
2018-07-14 06:00,6.1,107.40,2.06,1.29,
2018-07-14 07:00,6.5,103.40,1.75,1.27,
2018-07-14 08:00,6.1,101.40,2.04,1.23,
2018-07-14 09:00,6.1,97.40,2.21,1.39,
2018-07-14 10:00,6.5,98.40,2.70,1.40,
2018-07-14 11:00,6.7,98.40,2.60,1.29,
2018-07-14 12:00,6.5,100.40,2.34,1.30,
2018-07-14 13:00,6.9,102.40,2.10,1.30,
2018-07-14 14:00,7.1,106.40,1.99,1.22,
2018-07-14 15:00,6.3,101.40,1.97,1.28,
2018-07-14 16:00,6.3,106.40,2.51,1.36,
2018-07-14 17:00,6.9,104.40,2.30,1.33,
2018-07-14 18:00,5.9,103.40,2.07,1.19,
2018-07-14 19:00,6.1,101.40,2.03,1.18,
2018-07-14 20:00,6.1,95.40,2.18,1.16,
2018-07-14 21:00,6.3,98.40,1.65,1.12,
2018-07-14 22:00,7.4,98.40,1.62,1.12,
2018-07-14 23:00,7.7,98.40,1.64,1.04,
2018-07-15 00:00,6.3,100.40,1.74,1.02,
2018-07-15 01:00,6.3,97.40,1.44,0.98,
2018-07-15 02:00,5.9,98.40,1.75,0.98,
2018-07-15 03:00,6.1,96.40,1.83,1.06,
2018-07-15 04:00,6.9,98.40,2.28,1.07,
2018-07-15 05:00,7.1,98.40,1.85,1.06,
2018-07-15 06:00,5.6,100.40,1.89,1.12,
2018-07-15 07:00,7.7,102.40,2.12,1.28,
2018-07-15 08:00,5.7,97.40,2.20,1.32,
2018-07-15 09:00,5.7,98.40,2.88,1.34,
2018-07-15 10:00,5.4,97.40,2.38,1.36,
2018-07-15 11:00,5.7,96.40,1.96,1.23,
2018-07-15 12:00,6.3,96.40,1.89,1.30,
2018-07-15 13:00,6.1,95.40,1.90,1.33,
2018-07-15 14:00,6.9,97.40,2.41,1.34,
2018-07-15 15:00,6.5,100.40,2.21,1.32,
2018-07-15 16:00,6.7,100.40,2.12,1.41,
2018-07-15 17:00,6.3,104.40,2.45,1.38,
2018-07-15 18:00,6.3,101.40,2.33,1.34,
2018-07-15 19:00,6.9,96.40,2.72,1.38,
2018-07-15 20:00,6.5,96.40,2.33,1.34,
2018-07-15 21:00,6.7,97.40,2.06,1.29,
2018-07-15 22:00,6.3,97.40,2.17,1.36,
2018-07-15 23:00,8.0,94.40,2.50,1.39,
2018-07-16 00:00,7.4,97.40,1.70,1.16,
2018-07-16 01:00,6.9,97.40,1.81,1.23,
2018-07-16 02:00,7.7,97.40,1.65,1.12,
2018-07-16 03:00,7.4,97.40,1.80,1.19,
2018-07-16 04:00,8.3,99.40,1.82,1.25,
2018-07-16 05:00,5.9,97.40,2.08,1.18,
2018-07-16 06:00,6.3,98.40,2.16,1.21,
2018-07-16 07:00,6.1,99.40,2.57,1.32,
2018-07-16 08:00,6.7,102.40,2.02,1.29,
2018-07-16 09:00,6.1,96.40,2.42,1.47,
2018-07-16 10:00,5.9,94.40,2.52,1.39,
2018-07-16 11:00,6.1,96.40,2.34,1.46,
2018-07-16 12:00,5.7,99.40,2.53,1.44,
2018-07-16 13:00,5.7,97.40,2.62,1.51,
2018-07-16 14:00,5.3,100.40,2.19,1.39,
2018-07-16 15:00,6.3,102.40,2.15,1.45,
2018-07-16 16:00,6.5,102.40,2.49,1.29,
2018-07-16 17:00,5.9,101.40,2.07,1.40,
2018-07-16 18:00,5.7,99.40,2.37,1.41,
2018-07-16 19:00,6.9,101.40,2.28,1.40,
2018-07-16 20:00,6.5,99.40,2.31,1.38,
2018-07-16 21:00,6.5,99.40,1.97,1.35,
2018-07-16 22:00,6.9,97.40,2.05,1.30,
2018-07-16 23:00,6.3,96.40,2.21,1.36,
2018-07-17 00:00,6.5,96.40,2.00,1.25,
2018-07-17 01:00,8.3,95.40,2.54,1.40,
2018-07-17 19:00,6.9,104.40,1.97,1.11,
2018-07-17 20:00,6.3,103.40,2.36,1.22,
2018-07-17 21:00,6.3,96.40,1.97,1.15,
2018-07-17 22:00,7.1,98.40,1.89,1.22,
2018-07-17 23:00,6.5,96.40,2.08,1.21,
2018-07-18 00:00,6.9,90.40,2.15,1.20,
2018-07-18 01:00,5.9,91.40,2.06,1.24,
2018-07-18 02:00,6.9,93.40,1.97,1.21,
2018-07-18 03:00,6.9,92.40,2.14,1.25,
2018-07-18 04:00,5.9,95.40,1.94,1.21,
2018-07-18 05:00,6.1,96.40,1.92,1.20,
2018-07-18 06:00,5.9,95.40,2.17,1.26,
2018-07-18 07:00,6.1,98.40,1.73,1.22,
2018-07-18 08:00,5.9,100.40,1.54,1.11,
2018-07-18 09:00,5.7,101.40,1.95,1.14,
2018-07-18 10:00,6.9,94.40,2.12,1.21,
2018-07-18 11:00,6.5,95.40,2.20,1.30,
2018-07-18 12:00,6.1,92.40,1.92,1.28,
2018-07-18 13:00,5.9,94.40,2.19,1.32,
2018-07-18 14:00,5.7,93.40,1.88,1.27,
2018-07-18 15:00,6.7,94.40,2.05,1.30,
2018-07-18 16:00,6.7,98.40,2.03,1.24,
2018-07-18 17:00,6.9,99.40,1.75,1.19,
2018-07-18 18:00,6.3,99.40,2.17,1.30,
2018-07-18 19:00,5.7,96.40,2.34,1.22,
2018-07-18 20:00,5.9,98.40,2.13,1.26,
2018-07-18 21:00,5.9,93.40,1.88,1.27,
2018-07-18 22:00,7.1,96.40,2.16,1.33,
2018-07-18 23:00,6.7,90.40,2.28,1.29,
2018-07-19 00:00,6.5,92.40,2.19,1.24,
2018-07-19 01:00,7.4,89.40,2.14,1.31,
2018-07-19 02:00,6.1,91.40,2.06,1.33,
2018-07-19 03:00,6.1,93.40,2.14,1.35,
2018-07-19 04:00,5.7,92.40,2.45,1.35,
2018-07-19 05:00,6.3,99.40,2.06,1.33,
2018-07-19 06:00,5.9,95.40,2.27,1.35,
2018-07-19 07:00,5.9,100.40,2.04,1.38,
2018-07-19 08:00,5.7,97.40,2.08,1.32,
2018-07-19 09:00,5.9,97.40,2.25,1.36,
2018-07-19 10:00,6.3,93.40,2.27,1.29,
2018-07-19 11:00,6.5,95.40,2.04,1.29,
2018-07-19 12:00,5.9,95.40,2.27,1.29,
2018-07-19 13:00,6.3,94.40,2.25,1.34,
2018-07-19 14:00,5.7,99.40,1.87,1.31,
2018-07-19 15:00,6.5,98.40,1.84,1.29,
2018-07-19 16:00,5.7,100.40,2.32,1.28,
2018-07-19 17:00,5.7,100.40,1.93,1.28,
2018-07-19 18:00,7.4,98.40,2.20,1.38,
2018-07-19 19:00,6.1,104.40,2.21,1.32,
2018-07-19 20:00,5.6,99.40,2.18,1.31,
2018-07-19 21:00,8.0,97.40,2.25,1.37,
2018-07-19 22:00,7.7,98.40,2.17,1.35,
2018-07-19 23:00,9.1,98.40,2.02,1.13,
2018-07-20 00:00,8.3,96.40,2.25,1.21,
2018-07-20 01:00,5.9,100.40,2.67,1.29,
2018-07-20 02:00,5.7,96.40,2.19,1.28,
2018-07-20 03:00,9.1,94.40,2.52,1.32,
2018-07-20 04:00,5.6,96.40,2.15,1.28,
2018-07-20 05:00,6.3,92.40,2.00,1.45,
2018-07-20 06:00,6.5,92.40,2.41,1.56,
2018-07-20 07:00,5.9,95.40,2.29,1.55,
2018-07-20 08:00,5.7,97.40,2.50,1.50,
2018-07-20 09:00,6.1,99.40,2.90,1.57,
2018-07-20 10:00,6.7,100.40,2.50,1.53,
2018-07-20 11:00,6.7,98.40,2.36,1.45,
2018-07-20 12:00,8.7,96.40,1.99,1.45,
2018-07-20 13:00,6.7,98.40,2.43,1.46,
2018-07-20 14:00,6.5,96.40,2.49,1.52,
2018-07-20 15:00,5.9,98.40,2.22,1.45,
2018-07-20 16:00,6.5,101.40,2.63,1.55,
2018-07-20 17:00,6.3,104.40,2.82,1.59,
2018-07-20 18:00,5.9,105.40,2.12,1.59,
2018-07-20 19:00,6.3,102.40,2.55,1.59,
2018-07-20 20:00,6.7,102.40,2.41,1.45,
2018-07-20 21:00,5.9,100.40,2.55,1.53,
2018-07-20 22:00,6.7,95.40,2.73,1.38,
2018-07-20 23:00,6.5,99.40,2.09,1.43,
2018-07-21 00:00,6.3,98.40,2.47,1.43,
2018-07-21 01:00,6.7,96.40,2.19,1.47,
2018-07-21 02:00,6.3,97.40,2.50,1.47,
2018-07-21 03:00,5.9,100.40,2.44,1.45,
2018-07-21 04:00,6.5,95.40,2.10,1.37,
2018-07-21 05:00,6.7,100.40,2.42,1.50,
2018-07-21 06:00,6.3,99.40,2.11,1.41,
2018-07-21 07:00,5.7,104.40,2.55,1.44,
2018-07-21 08:00,5.7,104.40,2.24,1.40,
2018-07-21 09:00,5.9,106.40,2.10,1.39,
2018-07-21 10:00,5.9,106.40,2.20,1.31,
2018-07-21 11:00,9.1,102.40,1.93,1.20,
2018-07-21 12:00,8.7,105.40,2.25,1.26,
2018-07-21 13:00,5.6,107.40,2.25,1.23,
2018-07-21 14:00,8.7,104.40,1.85,1.27,
2018-07-21 15:00,6.9,104.40,1.89,1.20,
2018-07-21 16:00,9.1,107.40,1.89,1.21,
2018-07-21 17:00,6.1,108.40,1.95,1.15,
2018-07-21 18:00,8.0,106.40,1.72,1.03,
2018-07-21 19:00,5.7,105.40,2.03,1.14,
2018-07-21 20:00,5.7,109.40,2.20,1.15,
2018-07-21 21:00,8.7,106.40,1.81,1.06,
2018-07-21 22:00,8.7,106.40,1.71,1.07,
2018-07-21 23:00,8.0,100.40,1.94,1.22,
2018-07-22 00:00,8.7,104.40,1.81,1.22,
2018-07-22 01:00,8.3,101.40,2.06,1.14,
2018-07-22 02:00,9.1,99.40,1.81,1.18,
2018-07-22 03:00,8.3,94.40,1.90,1.15,
2018-07-22 04:00,8.7,92.40,2.03,1.03,
2018-07-22 05:00,5.3,96.40,1.85,1.08,
2018-07-22 06:00,8.7,96.40,1.79,1.02,
2018-07-22 07:00,8.7,93.40,1.88,1.08,
2018-07-22 08:00,9.1,94.40,1.68,1.10,
2018-07-22 09:00,6.9,98.40,1.98,1.14,
2018-07-22 10:00,8.3,96.40,1.86,1.08,
2018-07-22 11:00,8.7,99.40,1.69,1.12,
2018-07-22 12:00,8.7,98.40,1.56,1.04,
2018-07-22 13:00,8.7,100.40,1.59,1.08,
2018-07-22 14:00,9.1,101.40,2.29,1.08,
2018-07-22 15:00,8.7,102.40,1.87,1.10,
2018-07-22 16:00,5.3,102.40,1.80,1.10,
2018-07-22 17:00,8.7,102.40,1.96,1.13,
2018-07-22 18:00,9.5,101.40,1.89,1.19,
2018-07-22 19:00,8.3,101.40,1.93,1.19,
2018-07-22 20:00,5.6,106.40,1.86,1.17,
2018-07-22 21:00,5.6,103.40,2.28,1.19,
2018-07-22 22:00,5.4,102.40,1.69,1.07,
2018-07-22 23:00,5.4,104.40,1.81,1.11,
2018-07-23 00:00,5.9,107.40,1.76,1.17,
2018-07-23 01:00,5.9,109.40,1.79,1.10,
2018-07-23 02:00,9.1,106.40,1.62,1.11,
2018-07-23 03:00,5.4,104.40,1.75,1.05,
2018-07-23 04:00,5.6,103.40,1.61,1.02,
2018-07-23 05:00,5.4,106.40,1.54,0.95,
2018-07-23 06:00,6.7,99.40,1.52,1.01,
2018-07-23 07:00,5.0,99.40,1.47,0.99,
2018-07-23 08:00,5.1,99.40,1.97,1.07,
2018-07-23 09:00,4.7,104.40,1.76,1.04,
2018-07-23 10:00,5.9,100.40,1.79,1.16,
2018-07-23 11:00,4.9,102.40,1.97,1.14,
2018-07-23 12:00,5.0,102.40,1.84,1.14,
2018-07-23 13:00,5.7,107.40,1.90,1.14,
2018-07-23 14:00,6.1,102.40,1.94,1.07,
2018-07-23 15:00,5.6,105.40,1.77,1.16,
2018-07-23 16:00,5.4,105.40,1.82,1.18,
2018-07-23 17:00,5.3,104.40,1.99,1.17,
2018-07-23 18:00,5.3,102.40,2.04,1.17,
2018-07-23 19:00,5.9,103.40,1.72,1.14,
2018-07-23 20:00,5.4,109.40,1.97,1.10,
2018-07-23 21:00,5.7,105.40,2.20,1.08,
2018-07-23 22:00,5.7,108.40,1.83,1.08,
2018-07-23 23:00,5.7,105.40,2.01,1.04,
2018-07-24 00:00,5.7,105.40,2.08,1.12,
2018-07-24 01:00,6.3,103.40,1.89,1.11,
2018-07-24 02:00,5.7,105.40,2.04,1.17,
2018-07-24 03:00,5.7,98.40,2.06,1.24,
2018-07-24 04:00,5.4,100.40,1.97,1.19,
2018-07-24 05:00,5.6,103.40,2.16,1.28,
2018-07-24 06:00,6.3,99.40,1.93,1.23,
2018-07-24 07:00,5.7,101.40,2.02,1.24,
2018-07-24 08:00,6.1,102.40,1.89,1.23,
2018-07-24 09:00,5.6,103.40,2.23,1.23,
2018-07-24 10:00,5.9,100.40,2.19,1.36,
2018-07-24 11:00,5.7,104.40,2.13,1.35,
2018-07-24 12:00,5.7,103.40,1.91,1.37,
2018-07-24 13:00,5.6,108.40,2.14,1.34,
2018-07-24 14:00,6.1,107.40,2.37,1.37,
2018-07-24 15:00,5.9,102.40,2.00,1.22,
2018-07-24 16:00,6.7,98.40,2.17,1.20,
2018-07-24 17:00,5.6,98.40,2.16,1.17,
2018-07-24 18:00,5.9,101.40,2.06,1.16,
2018-07-24 19:00,5.9,96.40,1.92,1.19,
2018-07-24 20:00,6.9,93.40,1.81,1.09,
2018-07-24 21:00,7.4,97.40,1.67,1.18,
2018-07-24 22:00,7.7,96.40,1.83,1.11,
2018-07-24 23:00,6.3,102.40,2.11,1.21,
2018-07-25 00:00,6.5,103.40,2.00,1.12,
2018-07-25 01:00,6.5,104.40,1.76,1.16,
2018-07-25 02:00,8.3,104.40,1.67,1.03,
2018-07-25 03:00,6.3,100.40,2.04,1.10,
2018-07-25 06:00,7.4,98.40,1.65,1.01,